Location: Newark
(54.8972°N, 99.8189°W)
Time: 07:43:36
(UTC+00:00)

SR - All Passes

Search period start: 19 November 2019 00:00
Search period end: 29 November 2019 00:00
Orbit: 574 x 882 km, 66.7° (Epoch: 18 November)

Date Brightness Start Highest point End Pass type
(mag) Time Alt. Az. Time Alt. Az. Time Alt. Az.
19 Nov - 00:43:06 10° WNW 00:48:06 30° NNW 00:53:16 10° NE visible
19 Nov - 02:26:58 10° NW 02:31:54 27° N 02:36:54 10° ENE visible
19 Nov - 04:09:40 10° NW 04:15:23 46° NNE 04:21:04 10° ESE visible
19 Nov - 05:51:57 10° NW 05:57:50 63° SW 06:03:35 10° SSE visible
19 Nov - 07:35:35 10° WNW 07:38:55 16° WSW 07:42:12 10° SW night (unlit)
19 Nov - 20:29:33 10° SSE 20:33:43 23° ESE 20:38:06 10° ENE daylight
19 Nov - 22:09:38 10° SW 22:15:08 89° SE 22:21:02 10° NE daylight
19 Nov - 23:52:44 10° W 23:57:57 36° NNW 00:03:23 10° NE visible
20 Nov - 01:36:48 10° NW 01:41:37 26° N 01:46:34 10° NE visible
20 Nov - 03:19:54 10° NW 03:25:20 36° NNE 03:30:45 10° E visible
20 Nov - 05:02:11 10° NW 05:08:11 87° NE 05:14:04 10° SE visible
20 Nov - 06:44:57 10° WNW 06:49:45 26° WSW 06:54:27 10° SSW night (unlit)
20 Nov - 19:42:07 10° SE 19:44:36 13° ESE 19:47:11 10° ENE daylight
20 Nov - 21:20:11 10° SSW 21:25:31 58° ESE 21:31:15 10° NE daylight
20 Nov - 23:02:29 10° WSW 23:07:53 47° NNW 23:13:36 10° NE visible
21 Nov - 00:46:29 10° WNW 00:51:21 27° N 00:56:23 10° NE visible
21 Nov - 02:30:01 10° NW 02:35:10 30° NNE 02:40:21 10° ENE visible
21 Nov - 04:12:28 10° NW 04:18:23 61° NE 04:24:13 10° ESE visible
21 Nov - 05:54:53 10° NW 06:00:25 41° WSW 06:05:50 10° S visible
21 Nov - 20:31:10 10° S 20:36:05 36° ESE 20:41:20 10° NE daylight
21 Nov - 22:12:27 10° SW 22:17:58 65° NW 22:23:51 10° NE daylight
21 Nov - 23:56:06 10° WNW 00:01:08 30° NNW 00:06:21 10° NE visible
22 Nov - 01:40:00 10° NW 01:44:56 27° N 01:49:56 10° ENE visible
22 Nov - 03:22:44 10° NW 03:28:26 45° NNE 03:34:05 10° ESE visible
22 Nov - 05:05:01 10° NW 05:10:55 65° SW 05:16:41 10° SSE visible
22 Nov - 06:48:33 10° WNW 06:52:03 16° WSW 06:55:30 10° SW night (unlit)
22 Nov - 19:42:44 10° SSE 19:46:49 22° ESE 19:51:07 10° ENE daylight
22 Nov - 21:22:41 10° SW 21:28:12 86° SE 21:34:07 10° NE daylight
22 Nov - 23:05:44 10° W 23:10:59 37° NNW 23:16:28 10° NE visible
23 Nov - 00:49:48 10° WNW 00:54:39 26° N 00:59:36 10° NE visible
23 Nov - 02:32:57 10° NW 02:38:22 35° NNE 02:43:46 10° E visible
23 Nov - 04:15:16 10° NW 04:21:16 84° NE 04:27:08 10° SE visible
23 Nov - 05:58:00 10° WNW 06:02:52 27° WSW 06:07:38 10° SSW night (unlit)
23 Nov - 18:55:27 10° SE 18:57:44 13° E 19:00:05 10° ENE daylight
23 Nov - 20:33:16 10° SSW 20:38:36 56° ESE 20:44:20 10° NE daylight
23 Nov - 22:15:30 10° WSW 22:20:56 48° NW 22:26:41 10° NE daylight
23 Nov - 23:59:29 10° WNW 00:04:23 27° N 00:09:25 10° NE visible
24 Nov - 01:43:04 10° NW 01:48:12 29° NNE 01:53:21 10° ENE visible
24 Nov - 03:25:33 10° NW 03:31:27 59° NE 03:37:14 10° ESE visible
24 Nov - 05:07:56 10° NW 05:13:31 43° WSW 05:18:57 10° S visible
24 Nov - 19:44:17 10° S 19:49:11 35° ESE 19:54:23 10° NE daylight
24 Nov - 21:25:28 10° SW 21:31:01 68° NW 21:36:57 10° NE daylight
24 Nov - 23:09:05 10° W 23:14:09 31° NNW 23:19:25 10° NE visible
25 Nov - 00:53:00 10° NW 00:57:57 27° N 01:02:56 10° ENE visible
25 Nov - 02:35:49 10° NW 02:41:29 44° NNE 02:47:06 10° ESE visible
25 Nov - 04:18:05 10° NW 04:24:01 68° SW 04:29:46 10° SSE visible
25 Nov - 06:01:31 10° WNW 06:05:10 17° WSW 06:08:46 10° SW night (unlit)
25 Nov - 18:55:55 10° SSE 18:59:56 21° ESE 19:04:09 10° ENE daylight
25 Nov - 20:35:44 10° SW 20:41:17 83° SE 20:47:12 10° NE daylight
25 Nov - 22:18:44 10° W 22:24:01 38° NNW 22:29:33 10° NE daylight
26 Nov - 00:02:48 10° WNW 00:07:41 26° N 00:12:37 10° NE visible
26 Nov - 01:46:01 10° NW 01:51:24 34° NNE 01:56:46 10° E visible
26 Nov - 03:28:20 10° NW 03:34:20 82° NE 03:40:11 10° SE visible
26 Nov - 05:11:02 10° NW 05:15:59 28° WSW 05:20:48 10° SSW visible
26 Nov - 18:08:49 10° ESE 18:10:52 12° E 18:12:57 10° E daylight
26 Nov - 19:46:21 10° SSW 19:51:42 54° ESE 19:57:24 10° NE daylight
26 Nov - 21:28:30 10° WSW 21:33:59 49° NW 21:39:46 10° NE daylight
26 Nov - 23:12:29 10° WNW 23:17:24 28° N 23:22:28 10° NE visible
27 Nov - 00:56:06 10° NW 01:01:13 29° NNE 01:06:21 10° ENE visible
27 Nov - 02:38:37 10° NW 02:44:30 57° NE 02:50:17 10° ESE visible
27 Nov - 04:21:00 10° NW 04:26:38 45° WSW 04:32:04 10° S visible
27 Nov - 18:57:25 10° S 19:02:17 33° ESE 19:07:27 10° NE daylight
27 Nov - 20:38:30 10° SW 20:44:05 70° NW 20:50:02 10° NE daylight
27 Nov - 22:22:04 10° W 22:27:11 31° NNW 22:32:28 10° NE daylight
28 Nov - 00:06:02 10° NW 00:10:58 27° N 00:15:57 10° ENE visible
28 Nov - 01:48:52 10° NW 01:54:32 42° NNE 02:00:07 10° ESE visible
28 Nov - 03:31:09 10° NW 03:37:06 70° SW 03:42:51 10° SSE visible
28 Nov - 05:14:29 10° WNW 05:18:17 18° WSW 05:22:01 10° SW visible
28 Nov - 18:09:07 10° SSE 18:13:03 20° ESE 18:17:10 10° ENE daylight
28 Nov - 19:48:47 10° SW 19:54:21 80° SE 20:00:17 10° NE daylight
28 Nov - 21:31:43 10° W 21:37:03 38° NNW 21:42:36 10° NE daylight
28 Nov - 23:15:49 10° WNW 23:20:42 26° N 23:25:39 10° NE visible
